Location: Unspecified
(43.4354°N, 0.0000°E)
Time: 13:35:04
(UTC+00:00)

AO-7 - Visible Passes

Search period start: 18 July 2019 00:00
Search period end: 28 July 2019 00:00
Orbit: 1440 x 1458 km, 101.7° (Epoch: 17 July)

Date Brightness Start Highest point End Pass type
(mag) Time Alt. Az. Time Alt. Az. Time Alt. Az.
18 Jul ? 02:04:05 10° NE 02:09:22 18° E 02:14:36 10° SE visible
18 Jul ? 03:54:47 10° NNE 04:03:14 85° ESE 04:11:37 10° SSW visible
19 Jul ? 02:55:18 10° NNE 03:03:02 39° E 03:10:41 10° SSE visible
20 Jul ? 01:57:33 10° NE 02:02:13 16° E 02:06:51 10° ESE visible
20 Jul ? 03:47:48 10° NNE 03:56:14 78° ESE 04:04:35 10° SSW visible
21 Jul ? 02:48:25 10° NNE 02:55:58 36° E 03:03:25 10° SSE visible
22 Jul ? 01:51:10 10° ENE 01:55:04 14° E 01:58:56 10° ESE visible
22 Jul ? 03:40:49 10° NNE 03:49:13 72° ESE 03:57:33 10° S visible
23 Jul ? 02:41:34 10° NE 02:48:53 32° E 02:56:06 10° SSE visible
24 Jul ? 01:45:03 10° ENE 01:47:54 12° E 01:50:45 10° ESE visible
24 Jul ? 03:33:51 10° NNE 03:42:12 66° ESE 03:50:28 10° S visible
25 Jul ? 02:34:44 10° NE 02:41:47 29° E 02:48:46 10° SSE visible
26 Jul ? 01:39:56 10° ENE 01:40:44 10° E 01:41:31 10° E visible
26 Jul ? 03:26:53 10° NNE 03:35:10 60° ESE 03:43:23 10° S visible
27 Jul ? 02:27:57 10° NE 02:34:41 26° E 02:41:22 10° SSE visible
